Die Wichtigste » das Wetter in Italien » Friaul-Julisch Venetien » Grado » Meteograms hourly weather

Grado, Meteogramm

Grado: stundensatz wetter
Donnerstag, 02 Juli
Zeit Der Niederschlag Die Temperatur Fühlt Der Druck Die Feuchtigkeit Der Wind
03:00 0 mm +17.6° +18.8° 766 mmHg 83% 1 m/S, NO
04:00 0 mm +17.5° +18.7° 766 mmHg 84% 1 m/S, NO
05:00 0 mm +20.2° +21.5° 766 mmHg 76% 1 m/S, NO
06:00 0 mm +22.9° +24.3° 767 mmHg 69% 1 m/S, NO
07:00 0 mm +25.6° +27° 767 mmHg 62% 1 m/S, NO
08:00 0 mm +27.5° +28.7° 767 mmHg 56% 1 m/S, NO
09:00 0 mm +29.3° +30.3° 767 mmHg 49% 1 m/S, O
10:00 0 mm +31.1° +31.9° 767 mmHg 43% 1 m/S, S
11:00 0 mm +31.7° +32.4° 766 mmHg 42% 1 m/S, SW
12:00 0 mm +32.2° +32.9° 766 mmHg 41% 2 m/S, SW
13:00 0 mm +32.8° +33.4° 766 mmHg 39% 2 m/S, SW
14:00 0.02 mm +32.5° +33.2° 766 mmHg 41% 2 m/S, SW
15:00 0.02 mm +32.2° +33° 766 mmHg 42% 2 m/S, SW
16:00 0.02 mm +31.9° +32.8° 766 mmHg 44% 2 m/S, SW
17:00 0.02 mm +30° +31.6° 766 mmHg 54% 2 m/S, SW
18:00 0.02 mm +28.2° +30.3° 766 mmHg 64% 2 m/S, SW
19:00 0.02 mm +26.4° +28.9° 766 mmHg 74% 1 m/S, SW
20:00 0.02 mm +24.6° +26.8° 767 mmHg 76% 1 m/S, S
21:00 0.02 mm +22.8° +24.8° 767 mmHg 78% 1 m/S, SO
22:00 0.02 mm +21.1° +22.7° 767 mmHg 80% 1 m/S, NO
23:00 0.02 mm +21.2° +22.9° 767 mmHg 81% 1 m/S, NO
Freitag, 03 Juli
Zeit Der Niederschlag Die Temperatur Fühlt Der Druck Die Feuchtigkeit Der Wind
00:00 0.02 mm +21.2° +23° 767 mmHg 81% 1 m/S, NO
01:00 0.02 mm +21.3° +23.2° 768 mmHg 82% 1 m/S, NO
02:00 0.01 mm +21.2° +23° 768 mmHg 82% 2 m/S, NO
03:00 0.01 mm +21.1° +22.8° 768 mmHg 82% 2 m/S, NO
04:00 0.01 mm +20.9° +22.7° 768 mmHg 82% 2 m/S, NO
05:00 0 mm +22.6° +24.4° 768 mmHg 77% 2 m/S, NO
06:00 0 mm +24.3° +26.3° 768 mmHg 73% 2 m/S, NO
07:00 0 mm +26° +28° 768 mmHg 68% 2 m/S, NO
08:00 0 mm +28° +29.7° 768 mmHg 60% 2 m/S, NO
09:00 0 mm +29.9° +31.3° 768 mmHg 52% 1 m/S, O
10:00 0 mm +31.9° +32.8° 768 mmHg 44% 1 m/S, O
11:00 0 mm +32.6° +33.5° 768 mmHg 42% 1 m/S, SO
12:00 0 mm +33.4° +34.2° 768 mmHg 40% 2 m/S, S
13:00 0 mm +34.1° +34.8° 768 mmHg 38% 2 m/S, S
14:00 0.09 mm +33.6° +34.5° 768 mmHg 40% 2 m/S, SW
15:00 0.09 mm +33.2° +34.1° 768 mmHg 42% 2 m/S, SW
16:00 0.09 mm +32.7° +33.8° 768 mmHg 44% 3 m/S, SW
17:00 0.02 mm +31° +32.8° 768 mmHg 53% 2 m/S, SW
18:00 0.02 mm +29.4° +31.7° 768 mmHg 63% 2 m/S, SW
19:00 0.02 mm +27.7° +30.4° 769 mmHg 72% 1 m/S, SW
20:00 0.01 mm +25.8° +28.2° 769 mmHg 74% 1 m/S, S
21:00 0.01 mm +24° +26.1° 769 mmHg 77% 1 m/S, O
22:00 0.01 mm +22.1° +23.9° 769 mmHg 79% 1 m/S, O
23:00 0 mm +21.9° +23.7° 769 mmHg 79% 1 m/S, O
Samstag, 04 Juli
Zeit Der Niederschlag Die Temperatur Fühlt Der Druck Die Feuchtigkeit Der Wind
00:00 0 mm +21.7° +23.3° 769 mmHg 78% 2 m/S, O
01:00 0 mm +21.5° +23° 769 mmHg 77% 2 m/S, O
02:00 0 mm +21.2° +22.7° 769 mmHg 77% 2 m/S, NO

Auch

Meteograms hourly weather Die Wetterkarte Wetterübersicht
Meteograms hourly weather Die Wetterkarte Wetterübersicht

Market


Wetter widget


 
das Wetter in Österreich:
Über das Projekt
© meteoprog.at 2003-2015.
Meteoprog.ua - погода в Украине 0.0710
sitemap